Probability
1 1 0 0 0 0 0 0 1 4 8 13 16 17 18 20 17 12 12 17 21 21 19 19 20 21 20 21 21 18 14 13 14 15 15 15 15 13 12 11 11 11 11 11
1 0 0 0 0 0 0 1 2 4 9 14 18 17 19 21 18 14 14 17 18 18 17 18 17 17 18 19 19 15 13 12 13 14 14 13 13 12 12 10 10 9 9 9
0 0 0 0 0 0 0 1 4 7 11 16 17 16 17 19 18 17 18 20 17 14 14 15 13 12 14 15 14 12 10 11 13 13 12 10 10 11 12 11 9 8 7 7
1 0 0 0 1 0 1 2 5 8 13 15 14 12 12 14 15 17 21 22 17 12 12 12 11 9 10 11 10 10 10 11 11 10 9 8 8 10 12 12 10 9 7 7
2 1 0 0 0 0 1 2 4 7 10 11 10 8 8 10 11 13 18 20 16 12 11 12 10 8 8 9 10 10 10 11 11 9 9 9 10 11 12 12 11 9 8 8
1 0 0 0 0 0 0 1 4 6 7 7 8 7 7 8 9 10 13 15 13 11 11 12 11 10 9 10 11 12 12 12 12 10 11 12 13 13 13 11 10 8 9 9
0 0 0 0 0 1 2 4 7 7 7 7 8 9 9 9 8 8 9 10 10 10 11 11 11 12 11 12 14 15 15 15 14 13 13 13 13 13 14 12 10 9 10 11
0 0 1 2 3 5 7 9 10 10 9 9 10 10 10 8 8 7 7 7 9 10 11 11 11 11 12 13 14 15 16 16 16 16 15 13 13 13 14 13 11 10 11 12
0 1 2 3 6 9 11 11 11 10 10 9 8 8 7 6 6 6 5 6 7 9 10 10 9 9 9 11 12 13 14 15 15 15 15 15 14 12 12 11 10 10 11 12
1 2 2 3 4 7 8 8 9 9 7 5 4 5 5 5 4 3 3 3 3 5 6 6 6 5 6 8 10 11 12 13 12 11 12 14 13 10 8 8 8 8 10 11
1 3 3 2 1 2 3 5 7 7 5 4 3 3 5 4 3 2 2 1 1 2 3 3 3 3 5 7 9 11 12 12 10 9 8 9 9 7 5 4 5 6 7 7
2 3 4 3 1 0 1 3 5 4 3 2 2 2 3 4 3 3 3 2 2 3 3 3 3 3 4 5 7 9 11 10 9 8 6 5 4 4 2 1 2 2 2 2
3 4 4 4 3 2 2 3 3 2 2 2 1 2 4 5 5 4 3 3 2 3 3 3 3 3 3 3 4 6 7 8 8 7 4 2 2 2 1 0 0 0 0 0
3 4 4 4 4 3 3 2 2 2 2 2 3 4 6 7 7 5 4 3 2 3 3 3 3 3 3 3 3 3 4 5 5 4 2 0 1 2 1 0 0 0 0 0
3 3 3 4 4 3 3 3 3 3 3 3 4 4 5 6 6 4 3 3 2 3 3 3 3 3 3 3 3 3 3 3 3 2 1 1 1 1 1 0 0 0 0 0
2 3 3 3 3 3 3 3 4 4 3 3 3 2 2 3 4 4 3 2 2 2 3 4 3 3 3 3 3 3 3 1 1 1 2 1 1 0 0 0 0 0 0 0
2 3 3 3 3 3 3 3 3 3 2 2 2 1 0 2 5 5 4 2 1 1 3 4 4 3 3 3 4 3 3 1 0 1 1 1 0 0 0 0 0 0 0 0
3 3 3 3 3 2 2 2 1 1 1 1 1 0 1 3 5 6 5 3 2 1 3 4 3 3 3 4 4 4 4 2 1 0 0 0 0 1 1 1 0 0 0 0
3 3 3 2 1 1 1 1 0 0 0 1 1 0 1 3 5 5 4 3 3 2 2 3 2 2 2 3 3 4 4 2 1 0 1 1 1 1 2 1 0 0 0 0
2 2 1 1 0 0 0 0 0 0 1 1 1 0 1 3 4 4 3 3 3 3 2 2 1 1 1 1 1 2 2 1 0 0 1 1 1 1 2 1 1 1 1 1
1 1 0 0 0 0 0 0 0 0 1 2 1 0 1 3 3 3 3 3 3 3 3 1 0 0 0 0 0 0 0 0 0 0 0 0 1 2 2 2 2 3 2 2
1 0 0 0 0 0 0 0 0 0 1 2 1 1 2 3 3 3 3 3 3 3 2 1 0 0 0 0 0 0 0 0 0 0 0 0 1 2 3 3 3 3 3 3
1 1 0 0 0 0 0 0 0 0 1 1 1 1 2 3 2 2 3 3 2 1 1 1 0 0 0 0 0 0 0 0 0 0 0 0 1 2 2 2 3 3 3 3
1 2 1 0 0 0 0 0 0 0 0 0 0 1 2 2 1 1 2 2 1 0 0 0 0 0 0 0 0 0 0 0 0 0 0 0 0 1 1 1 1 2 2 2
1 2 2 1 1 1 0 0 0 0 0 0 0 1 3 3 1 1 3 2 1 0 0 0 0 0 0 0 0 0 0 0 0 0 0 0 0 0 0 0 0 1 1 1
2 2 2 2 2 1 0 0 0 0 0 0 1 2 3 3 2 2 3 3 2 1 0 0 0 0 0 0 0 0 0 0 0 0 0 0 0 0 0 0 0 0 0 0
3 3 2 2 1 1 0 0 0 0 0 0 1 2 3 3 2 2 2 2 2 1 1 1 0 0 0 0 0 0 0 0 0 0 0 0 0 0 0 0 0 0 0 0
Wind_Speed
13 13 11 10 11 10 10 10 10 7 4 3 3 3 4 4 4 5 5 5 4 4 3 3 3 3 2 2 3 2 2 2 2 2 2 2 2 2 2 2 3 2 2 2
13 12 11 11 11 10 10 9 8 5 3 2 4 4 4 3 2 3 4 4 4 4 3 2 2 2 2 2 2 2 2 1 1 1 1 1 2 2 1 1 2 2 3 3
11 11 11 12 9 9 8 7 8 6 1 2 2 3 3 3 3 3 3 3 3 3 3 2 2 2 2 1 2 2 1 1 1 1 1 0 0 1 1 1 1 2 2 2
9 10 11 5 6 7 6 4 3 1 2 2 3 3 4 3 2 2 3 3 3 2 2 2 2 2 2 1 2 1 1 1 0 0 0 0 0 0 1 1 1 1 2 2
7 9 9 6 6 6 6 1 3 2 2 2 2 2 3 3 4 3 3 3 3 2 2 2 2 2 1 1 1 1 1 1 1 1 1 1 1 1 1 1 1 2 2 2
7 8 8 4 5 4 3 1 4 3 2 2 1 1 1 4 4 4 5 4 3 3 2 2 2 1 1 1 1 1 1 1 1 1 1 1 1 1 1 1 2 2 2 2
9 8 5 3 4 2 2 1 5 4 3 2 1 2 3 3 4 5 4 4 3 2 2 2 1 1 0 0 1 1 1 1 1 1 1 1 1 1 1 2 2 2 2 2
6 7 4 4 3 2 3 3 3 3 3 3 4 4 4 4 4 4 3 3 3 2 2 2 2 2 1 1 1 1 1 2 1 2 2 1 1 1 1 2 2 2 2 2
1 1 3 4 5 4 2 2 2 2 2 2 3 3 4 4 4 3 3 3 2 2 2 2 2 2 2 2 1 1 2 2 2 2 2 1 2 2 2 2 3 2 2 2
2 2 1 3 3 3 3 3 2 2 2 2 2 2 3 3 3 2 2 1 1 2 2 2 2 2 2 2 2 2 2 2 2 2 2 2 2 2 2 2 2 2 2 2
2 1 1 1 3 3 2 2 2 1 1 1 1 2 3 3 2 2 2 1 1 2 2 1 2 2 2 2 2 2 2 2 3 3 3 2 2 2 2 1 1 2 2 3
2 2 3 2 2 2 2 1 1 1 2 2 1 2 3 2 2 2 1 1 1 2 2 2 2 3 2 2 2 2 2 3 3 3 2 3 2 2 1 2 2 3 3 3
2 2 2 1 1 1 1 1 1 1 2 2 2 2 2 1 1 1 1 2 1 2 2 2 2 2 2 2 2 2 3 3 3 3 3 3 3 3 2 2 3 3 4 4
2 1 1 1 0 1 0 1 1 2 2 2 2 2 2 2 2 2 2 2 2 2 2 2 2 2 2 2 2 3 3 3 3 3 3 4 3 3 3 3 2 2 3 5
0 1 1 0 0 1 1 1 1 1 2 2 2 1 1 2 2 1 1 1 2 3 3 3 3 3 2 2 3 4 4 3 3 3 3 4 4 4 4 3 3 3 2 2
1 0 0 1 1 1 1 1 1 0 1 1 1 1 2 2 1 1 1 1 2 3 4 4 4 4 4 3 3 4 3 4 4 3 4 4 4 4 3 3 3 3 3 2
2 1 1 1 1 1 1 0 0 0 0 1 1 1 1 1 1 1 1 2 2 3 3 4 4 4 4 4 4 4 4 3 4 4 4 3 4 4 3 3 3 3 3 2
1 2 2 1 1 1 1 1 1 0 0 1 1 1 1 1 1 1 2 2 2 3 4 4 4 5 4 3 3 3 4 4 4 3 3 3 3 3 3 3 3 4 3 2
2 1 1 1 1 1 1 1 1 0 1 0 0 1 1 1 1 2 2 2 3 3 4 5 6 5 4 3 4 3 4 4 4 3 3 3 3 3 3 4 3 3 3 3
1 0 0 1 1 1 1 1 1 1 1 0 1 1 1 1 1 2 2 2 2 3 4 4 4 4 4 3 4 5 4 4 4 3 3 3 3 3 3 4 4 3 3 3
1 1 1 1 1 1 1 1 1 1 1 0 1 1 0 1 1 2 2 2 2 3 4 3 3 3 4 5 6 5 4 4 4 3 3 3 3 3 3 3 4 3 3 3
1 1 2 2 1 1 0 1 1 1 1 1 1 1 1 1 1 2 2 2 2 2 2 3 3 3 4 6 5 4 4 4 4 4 3 3 3 3 2 3 3 4 3 2
1 1 1 1 0 0 0 1 1 1 1 2 2 1 1 2 2 2 2 1 1 1 3 3 3 3 4 5 4 3 4 4 4 4 3 3 3 3 3 3 3 4 4 3
1 1 1 1 1 1 1 1 1 1 2 2 2 2 2 2 1 1 1 1 0 1 3 2 1 4 5 5 4 3 3 3 4 4 4 4 4 3 3 3 4 4 4 4
1 1 1 1 2 2 2 2 3 2 3 3 3 2 2 1 1 1 2 2 2 3 3 2 5 5 5 4 4 3 3 3 4 4 4 4 4 4 3 4 4 4 4 4
1 1 1 2 2 2 2 2 2 2 2 2 2 1 1 1 1 2 2 3 3 3 4 3 2 3 4 5 4 3 4 3 3 4 5 4 5 5 4 4 5 4 4 4
1 2 2 3 2 2 2 2 3 2 1 1 2 2 1 1 2 2 2 3 3 3 3 3 3 3 3 3 3 3 3 3 4 5 5 5 4 4 4 5 4 4 4 4
Wind_Direction
275 277 277 277 273 272 275 278 277 274 248 171 131 101 95 94 102 106 108 109 101 86 73 62 57 51 63 70 81 83 90 101 130 145 161 173 174 172 174 183 195 190 190 198
275 278 278 273 274 273 266 267 270 268 268 109 114 108 101 94 95 95 106 112 103 92 79 65 62 60 55 67 75 82 91 96 106 128 156 186 171 153 167 194 215 205 203 207
277 280 279 268 277 272 264 270 260 263 291 97 84 74 88 98 74 76 79 83 87 94 81 63 46 53 57 70 77 88 91 76 61 128 148 41 290 153 173 198 225 225 217 214
278 279 260 276 307 304 283 280 314 42 90 89 84 83 84 90 77 54 55 66 68 72 72 67 62 62 61 63 80 79 82 75 19 224 210 229 293 286 212 216 219 220 231 229
269 268 263 275 295 302 288 290 9 47 63 63 70 105 89 54 49 54 58 75 83 72 74 65 58 81 73 40 43 54 20 4 336 330 335 297 283 284 254 241 237 235 230 225
260 267 269 298 326 320 297 240 12 46 52 47 28 225 103 51 46 43 55 65 75 70 70 68 46 56 87 62 9 333 326 314 316 329 334 311 300 280 253 247 239 241 243 232
255 259 260 342 329 307 255 341 16 27 29 42 24 19 88 67 60 57 56 63 70 65 61 57 45 34 330 335 311 315 325 322 316 317 302 283 293 289 272 263 259 254 253 250
254 257 267 2 339 9 44 36 26 27 28 29 56 73 87 81 70 64 55 47 56 55 40 26 15 351 312 321 314 314 315 308 317 311 292 297 319 283 277 271 265 260 253 255
271 283 10 14 58 69 38 30 27 35 38 58 70 82 86 90 87 76 60 42 39 41 41 29 10 353 330 332 332 324 322 311 306 304 295 288 263 253 247 247 260 267 260 263
228 146 32 360 31 44 17 0 14 54 71 71 75 81 94 100 105 106 85 60 17 18 40 28 12 3 350 330 337 328 307 297 283 273 273 279 270 267 265 270 273 283 285 280
302 332 281 325 337 356 6 3 5 53 76 58 67 98 100 101 100 107 102 60 23 12 9 1 360 347 349 341 333 327 310 301 284 270 271 276 275 287 277 297 292 278 300 307
288 320 306 309 337 357 11 19 20 55 71 77 70 88 100 101 94 89 93 68 22 355 348 353 353 337 345 346 329 313 302 299 298 294 287 279 274 279 271 228 216 226 238 256
347 306 299 335 336 0 63 73 62 86 93 92 73 60 90 101 110 109 84 63 21 338 331 326 314 321 333 321 307 283 282 286 293 295 292 289 286 283 281 260 238 232 244 249
39 337 301 342 17 71 82 97 88 113 113 103 101 84 72 65 66 69 48 31 1 332 316 310 307 323 325 311 306 292 285 282 287 287 286 288 288 281 279 282 279 270 254 238
327 259 280 290 177 147 172 175 145 117 130 114 96 103 91 67 69 64 28 8 350 336 331 332 334 332 312 302 304 292 284 278 278 283 278 278 280 274 273 274 280 289 295 272
291 287 240 190 193 176 173 154 116 75 76 110 118 114 94 75 72 60 11 349 344 337 333 333 336 328 318 312 298 282 270 263 268 278 280 278 282 279 281 285 289 292 286 286
260 270 258 206 180 174 193 212 205 203 337 36 64 91 105 102 65 20 341 337 333 325 327 328 327 322 316 309 296 292 296 283 263 267 273 280 286 288 288 288 291 291 289 292
247 261 255 246 237 221 232 236 237 228 23 5 76 69 58 48 15 337 328 328 324 331 334 329 327 316 312 308 300 293 293 296 296 297 297 296 297 294 291 283 284 289 290 280
228 235 229 249 260 237 243 246 218 196 223 195 109 93 50 28 6 336 322 319 326 332 336 328 320 314 319 333 317 290 285 293 298 298 295 292 287 289 292 299 297 299 304 302
259 204 180 252 245 243 249 222 187 194 203 106 125 95 44 12 352 338 332 322 315 324 326 329 323 324 322 336 319 290 288 292 292 289 286 288 294 296 300 303 305 310 308 307
260 216 194 238 246 235 271 272 263 238 213 223 185 201 258 342 339 325 311 301 326 344 329 326 323 334 341 335 302 293 297 299 299 297 295 297 301 296 297 301 304 306 306 309
264 241 231 234 241 222 237 266 229 237 264 284 263 246 262 280 301 308 307 310 343 3 312 315 333 353 333 314 302 306 305 304 305 303 305 306 309 310 311 307 303 303 303 307
288 280 266 230 213 98 357 286 271 283 291 305 303 290 284 307 307 297 295 322 340 346 302 321 351 326 309 294 294 298 301 308 310 306 307 309 309 305 303 305 307 308 308 309
284 267 254 217 187 198 216 246 262 284 291 283 270 264 256 256 263 267 294 189 193 273 295 315 269 286 283 277 285 291 300 308 314 316 318 317 310 305 309 310 309 307 306 308
278 285 253 221 218 215 221 228 223 235 254 258 255 239 226 242 277 302 296 276 208 240 275 241 231 253 272 290 294 299 307 319 320 315 315 311 307 307 311 311 316 316 314 312
234 241 254 248 256 261 253 247 245 247 244 242 265 262 229 208 264 271 276 278 283 270 277 282 253 238 264 285 300 318 326 325 318 316 323 325 324 325 325 324 322 322 323 322
245 230 241 247 239 237 245 246 254 259 256 271 273 275 277 265 260 279 294 294 295 290 289 292 292 280 281 296 313 326 328 330 336 336 338 336 335 334 335 335 333 334 338 338